International Skating Union - Official Site

ISU World Cup Final Heerenveen
March 11-13, 2016

Draw | Lap Times | Index | World Cup

Referee: Susan  SANDVIG-SHOBE  (USA)
Starter: Andrè  de VRIES  (NED)
StartTime: EndTime: Air Temp: Ice Temp: Humidity:
17:08 17:39 14.5℃ -12.8℃ 40%
Result 3000m Ladies Division A
Rankings as of Mar 11 2016 6:06PM
Rank: No.: Name: Nation: Time: Behind: Points:
1 147 Natalya  Voronina RUS RUS 4:08.15200m - 19.82 - (19.8)
600m - 51.29 - (31.4)
1000m - 1:23.11 - (31.8)
1400m - 1:55.67 - (32.5)
1800m - 2:28.61 - (32.9)
2200m - 3:01.88 - (33.2)
2600m - 3:34.87 - (32.9)
3000m - 4:08.15 - (33.2)
150
2 138 Jorien  Voorhuis NED NED 4:08.18200m - 19.97 - (19.9)
600m - 51.64 - (31.6)
1000m - 1:23.62 - (31.9)
1400m - 1:55.93 - (32.3)
1800m - 2:28.19 - (32.2)
2200m - 3:01.01 - (32.8)
2600m - 3:34.35 - (33.3)
3000m - 4:08.18 - (33.8)
0.03 120
3 145 Olga  Graf RUS RUS 4:08.40200m - 20.80 - (20.8)
600m - 52.43 - (31.6)
1000m - 1:24.74 - (32.3)
1400m - 1:57.38 - (32.6)
1800m - 2:30.19 - (32.8)
2200m - 3:02.95 - (32.7)
2600m - 3:35.82 - (32.8)
3000m - 4:08.40 - (32.5)
0.25 104
4 128 Marije  Joling NED NED 4:08.65200m - 20.54 - (20.5)
600m - 51.53 - (30.9)
1000m - 1:23.11 - (31.5)
1400m - 1:55.35 - (32.2)
1800m - 2:27.92 - (32.5)
2200m - 3:01.05 - (33.1)
2600m - 3:34.68 - (33.6)
3000m - 4:08.65 - (33.9)
0.50 90
5 132 Irene  Schouten NED NED 4:08.91200m - 20.38 - (20.3)
600m - 52.15 - (31.7)
1000m - 1:24.48 - (32.3)
1400m - 1:57.41 - (32.9)
1800m - 2:30.22 - (32.8)
2200m - 3:02.86 - (32.6)
2600m - 3:35.62 - (32.7)
3000m - 4:08.91 - (33.2)
0.76 76
6 115 Claudia  Pechstein GER GER 4:08.92200m - 20.37 - (20.3)
600m - 52.01 - (31.6)
1000m - 1:24.30 - (32.2)
1400m - 1:56.65 - (32.3)
1800m - 2:29.12 - (32.4)
2200m - 3:01.82 - (32.7)
2600m - 3:35.04 - (33.2)
3000m - 4:08.92 - (33.8)
0.77 45
7 121 Misaki  Oshigiri JPN JPN 4:10.06200m - 19.90 - (19.9)
600m - 51.48 - (31.5)
1000m - 1:23.91 - (32.4)
1400m - 1:56.06 - (32.1)
1800m - 2:29.01 - (32.9)
2200m - 3:02.36 - (33.3)
2600m - 3:36.13 - (33.7)
3000m - 4:10.06 - (33.9)
1.91 40
8 122 Miho  Takagi JPN JPN 4:10.49200m - 20.11 - (20.1)
600m - 52.06 - (31.9)
1000m - 1:24.59 - (32.5)
1400m - 1:57.35 - (32.7)
1800m - 2:30.17 - (32.8)
2200m - 3:02.93 - (32.7)
2600m - 3:36.44 - (33.5)
3000m - 4:10.49 - (34.0)
2.34 36
9 136 Annouk  van der Weijden NED NED 4:10.65200m - 19.70 - (19.7)
600m - 51.10 - (31.4)
1000m - 1:23.27 - (32.1)
1400m - 1:55.76 - (32.4)
1800m - 2:28.82 - (33.0)
2200m - 3:02.25 - (33.4)
2600m - 3:35.94 - (33.6)
3000m - 4:10.65 - (34.7)
2.50 32
10 131 Yvonne  Nauta NED NED 4:10.82200m - 20.35 - (20.3)
600m - 52.37 - (32.0)
1000m - 1:24.67 - (32.2)
1400m - 1:57.33 - (32.6)
1800m - 2:29.99 - (32.6)
2200m - 3:02.98 - (32.9)
2600m - 3:36.55 - (33.5)
3000m - 4:10.82 - (34.2)
2.67 28
11 123 Nana  Takagi JPN JPN 4:13.41200m - 20.37 - (20.3)
600m - 52.54 - (32.1)
1000m - 1:25.25 - (32.7)
1400m - 1:58.10 - (32.8)
1800m - 2:31.24 - (33.1)
2200m - 3:04.92 - (33.6)
2600m - 3:39.22 - (34.2)
3000m - 4:13.41 - (34.1)
5.26 24
12 141 Ida  Njåtun NOR NOR 4:13.60200m - 20.22 - (20.2)
600m - 51.71 - (31.4)
1000m - 1:24.02 - (32.3)
1400m - 1:56.74 - (32.7)
1800m - 2:29.96 - (33.2)
2200m - 3:03.98 - (34.0)
2600m - 3:38.55 - (34.5)
3000m - 4:13.60 - (35.0)
5.45 21